• In Hungary
  • List of Countries
  • For 7 days
  • Water Temperature
  • Satellite Maps
  • Weather Map
  • News
  • Weather Widgets
  • user-avatar
    Login

    Hourly Weather Mingora

    Today, 20 November, Monday

    Time Temperature Precipitation Wind Pressure Humidity
    00:00 +9°C° 0 mm 3 mps 677 mmHg 25%
    01:00 +9°C° 0 mm 3 mps 677 mmHg 26%
    02:00 +8°C° 0 mm 3 mps 677 mmHg 26%
    03:00 +8°C° 0 mm 3 mps 677 mmHg 26%
    04:00 +8°C° 0 mm 3 mps 677 mmHg 26%
    05:00 +8°C° 0 mm 3 mps 677 mmHg 26%
    06:00 +8°C° 0 mm 3 mps 677 mmHg 25%
    07:00 +9°C° 0 mm 3 mps 677 mmHg 25%
    08:00 +10°C° 0 mm 3 mps 678 mmHg 24%
    09:00 +13°C° 0 mm 2 mps 678 mmHg 21%
    10:00 +16°C° 0 mm 2 mps 679 mmHg 17%
    11:00 +20°C° 0 mm 1 mps 679 mmHg 13%
    12:00 +20°C° 0 mm 1 mps 679 mmHg 13%
    13:00 +19°C° 0 mm 2 mps 679 mmHg 13%
    14:00 +20°C° 0 mm 2 mps 678 mmHg 13%
    15:00 +17°C° 0 mm 2 mps 678 mmHg 16%
    16:00 +15°C° 0 mm 1 mps 677 mmHg 19%
    17:00 +12°C° 0 mm 1 mps 676 mmHg 24%
    18:00 +12°C° 0 mm 1 mps 677 mmHg 24%
    19:00 +10°C° 0 mm 2 mps 677 mmHg 23%
    20:00 +10°C° 0 mm 3 mps 677 mmHg 23%
    21:00 +10°C° 0 mm 3 mps 677 mmHg 23%
    22:00 +9°C° 0 mm 3 mps 677 mmHg 23%
    23:00 +9°C° 0 mm 3 mps 677 mmHg 24%

    Tomorrow, 21 November, Tuesday

    Time Temperature Precipitation Wind Pressure Humidity
    00:00 +8°C° 0 mm 3 mps 677 mmHg 24%
    01:00 +7°C° 0 mm 4 mps 677 mmHg 24%
    02:00 +7°C° 0 mm 4 mps 677 mmHg 25%
    03:00 +7°C° 0 mm 4 mps 677 mmHg 25%
    04:00 +6°C° 0 mm 4 mps 677 mmHg 25%
    05:00 +6°C° 0 mm 4 mps 677 mmHg 25%
    06:00 +7°C° 0 mm 4 mps 677 mmHg 24%
    07:00 +8°C° 0 mm 4 mps 677 mmHg 23%
    08:00 +8°C° 0 mm 4 mps 677 mmHg 23%
    09:00 +12°C° 0 mm 3 mps 677 mmHg 19%
    10:00 +16°C° 0 mm 2 mps 678 mmHg 15%
    11:00 +19°C° 0 mm 1 mps 678 mmHg 12%
    12:00 +20°C° 0 mm 1 mps 678 mmHg 11%
    13:00 +19°C° 0 mm 2 mps 677 mmHg 11%
    14:00 +20°C° 0 mm 2 mps 677 mmHg 10%
    15:00 +18°C° 0 mm 2 mps 676 mmHg 13%
    16:00 +15°C° 0 mm 1 mps 676 mmHg 15%
    17:00 +13°C° 0 mm 1 mps 675 mmHg 18%
    18:00 +12°C° 0 mm 2 mps 676 mmHg 18%
    19:00 +11°C° 0 mm 3 mps 676 mmHg 18%
    20:00 +10°C° 0 mm 3 mps 676 mmHg 18%
    21:00 +9°C° 0 mm 3 mps 676 mmHg 19%
    22:00 +8°C° 0 mm 4 mps 676 mmHg 19%
    23:00 +8°C° 0 mm 4 mps 676 mmHg 20%

    Day after tomorrow, 22 November, Wednesday

    Time Temperature Precipitation Wind Pressure Humidity
    00:00 +7°C° 0 mm 4 mps 676 mmHg 19%
    01:00 +7°C° 0 mm 4 mps 676 mmHg 19%
    02:00 +7°C° 0 mm 4 mps 676 mmHg 19%
    03:00 +7°C° 0 mm 4 mps 676 mmHg 19%
    04:00 +6°C° 0 mm 4 mps 675 mmHg 18%
    05:00 +6°C° 0 mm 4 mps 675 mmHg 17%
    06:00 +7°C° 0 mm 4 mps 676 mmHg 17%
    07:00 +8°C° 0 mm 4 mps 676 mmHg 16%
    08:00 +8°C° 0 mm 4 mps 676 mmHg 15%
    09:00 +12°C° 0 mm 3 mps 677 mmHg 13%
    10:00 +16°C° 0 mm 2 mps 677 mmHg 10%
    11:00 +20°C° 0 mm 1 mps 678 mmHg 8%
    12:00 +21°C° 0 mm 1 mps 678 mmHg 8%
    13:00 +20°C° 0 mm 2 mps 677 mmHg 8%
    14:00 +21°C° 0 mm 2 mps 677 mmHg 8%
    15:00 +18°C° 0 mm 2 mps 676 mmHg 10%
    16:00 +16°C° 0 mm 1 mps 675 mmHg 13%
    17:00 +13°C° 0 mm 1 mps 675 mmHg 15%
    18:00 +13°C° 0 mm 2 mps 675 mmHg 14%
    19:00 +12°C° 0 mm 2 mps 675 mmHg 14%
    20:00 +10°C° 0 mm 3 mps 676 mmHg 13%
    21:00 +10°C° 0 mm 3 mps 676 mmHg 13%
    22:00 +8°C° 0 mm 4 mps 676 mmHg 13%
    23:00 +8°C° 0 mm 4 mps 676 mmHg 13%

    23 November, Thursday

    Time Temperature Precipitation Wind Pressure Humidity
    00:00 +8°C° 0 mm 4 mps 675 mmHg 12%
    01:00 +8°C° 0 mm 4 mps 675 mmHg 12%
    02:00 +7°C° 0 mm 4 mps 675 mmHg 12%
    03:00 +7°C° 0 mm 4 mps 674 mmHg 11%
    04:00 +7°C° 0 mm 4 mps 674 mmHg 11%
    05:00 +7°C° 0 mm 4 mps 674 mmHg 10%
    06:00 +8°C° 0 mm 4 mps 674 mmHg 11%
    07:00 +8°C° 0 mm 4 mps 674 mmHg 11%
    08:00 +10°C° 0 mm 3 mps 675 mmHg 11%
    09:00 +13°C° 0 mm 3 mps 675 mmHg 10%
    10:00 +17°C° 0 mm 2 mps 676 mmHg 8%
    11:00 +21°C° 0 mm 1 mps 677 mmHg 7%
    12:00 +21°C° 0 mm 1 mps 676 mmHg 7%
    13:00 +21°C° 0 mm 2 mps 676 mmHg 7%
    14:00 +21°C° 0 mm 2 mps 676 mmHg 7%
    15:00 +20°C° 0 mm 1 mps 675 mmHg 10%
    16:00 +16°C° 0 mm 1 mps 674 mmHg 12%
    17:00 +13°C° 0 mm 1 mps 674 mmHg 15%
    18:00 +13°C° 0 mm 1 mps 674 mmHg 14%
    19:00 +12°C° 0 mm 2 mps 675 mmHg 13%
    20:00 +11°C° 0 mm 3 mps 675 mmHg 12%
    21:00 +11°C° 0 mm 3 mps 675 mmHg 12%
    22:00 +11°C° 0 mm 3 mps 676 mmHg 11%
    23:00 +11°C° 0 mm 3 mps 676 mmHg 11%

    24 November, Friday

    Time Temperature Precipitation Wind Pressure Humidity
    00:00 +10°C° 0 mm 3 mps 675 mmHg 11%
    01:00 +10°C° 0 mm 3 mps 675 mmHg 11%
    02:00 +10°C° 0 mm 3 mps 675 mmHg 11%
    03:00 +10°C° 0 mm 3 mps 675 mmHg 11%
    04:00 +9°C° 0 mm 3 mps 675 mmHg 10%
    05:00 +9°C° 0 mm 3 mps 675 mmHg 10%
    06:00 +10°C° 0 mm 3 mps 675 mmHg 11%
    07:00 +10°C° 0 mm 3 mps 676 mmHg 12%
    08:00 +11°C° 0 mm 3 mps 676 mmHg 12%
    09:00 +15°C° 0 mm 2 mps 677 mmHg 11%
    10:00 +18°C° 0 mm 2 mps 678 mmHg 9%
    11:00 +21°C° 0 mm 1 mps 678 mmHg 8%
    12:00 +22°C° 0 mm 1 mps 678 mmHg 8%
    13:00 +22°C° 0 mm 1 mps 677 mmHg 8%
    14:00 +23°C° 0 mm 2 mps 677 mmHg 9%
    15:00 +20°C° 0 mm 1 mps 676 mmHg 11%
    16:00 +18°C° 0 mm 1 mps 676 mmHg 14%
    17:00 +14°C° 0 mm 1 mps 675 mmHg 16%
    18:00 +14°C° 0 mm 1 mps 676 mmHg 16%
    19:00 +13°C° 0 mm 2 mps 676 mmHg 16%
    20:00 +12°C° 0 mm 3 mps 676 mmHg 15%
    21:00 +11°C° 0 mm 3 mps 676 mmHg 16%
    22:00 +11°C° 0 mm 3 mps 676 mmHg 16%
    23:00 +11°C° 0 mm 3 mps 676 mmHg 16%

    25 November, Saturday

    Time Temperature Precipitation Wind Pressure Humidity
    00:00 +11°C° 0 mm 3 mps 676 mmHg 16%
    01:00 +11°C° 0 mm 3 mps 676 mmHg 16%
    02:00 +10°C° 0 mm 3 mps 676 mmHg 16%
    03:00 +11°C° 0 mm 3 mps 675 mmHg 16%
    04:00 +11°C° 0 mm 3 mps 675 mmHg 16%
    05:00 +11°C° 0 mm 3 mps 675 mmHg 16%
    06:00 +11°C° 0 mm 3 mps 676 mmHg 16%
    07:00 +12°C° 0 mm 3 mps 676 mmHg 17%
    08:00 +12°C° 0 mm 3 mps 676 mmHg 17%
    09:00 +16°C° 0 mm 2 mps 677 mmHg 15%
    10:00 +18°C° 0 mm 2 mps 677 mmHg 14%
    11:00 +22°C° 0 mm 1 mps 678 mmHg 12%
    12:00 +22°C° 0 mm 1 mps 678 mmHg 12%
    13:00 +21°C° 0 mm 2 mps 677 mmHg 12%
    14:00 +23°C° 0 mm 2 mps 677 mmHg 12%
    15:00 +20°C° 0 mm 1 mps 676 mmHg 15%
    16:00 +18°C° 0 mm 1 mps 676 mmHg 18%
    17:00 +15°C° 0 mm 1 mps 675 mmHg 22%
    18:00 +14°C° 0 mm 1 mps 676 mmHg 22%
    19:00 +14°C° 0 mm 2 mps 676 mmHg 22%
    20:00 +12°C° 0 mm 3 mps 677 mmHg 23%
    21:00 +12°C° 0 mm 3 mps 677 mmHg 23%
    22:00 +12°C° 0 mm 3 mps 677 mmHg 24%
    23:00 +11°C° 0 mm 3 mps 677 mmHg 24%
    Show more